Location: Unspecified
(40.7945°N, 111.1337°W)
Time: 23:38:42
(UTC-06:00)

ISS - Pass Details

Date: 27 March 2019
Orbit: 408 x 410 km, 51.6° (Epoch: 26 April)

Event Time Altitude Azimuth Distance (km) Brightness Sun altitude
Rises 20:50:06 0° 283° (WNW) 2,328 2.1 -13.1°
Reaches altitude 10° 20:52:48 10° 307° (NW) 1,468 0.2 -13.6°
Maximum altitude 20:54:53 16° 346° (NNW) 1,174 -1.1 -14.0°
Drops below altitude 10° 20:56:59 10° 26° (NNE) 1,469 -1.1 -14.4°
Enters shadow 20:58:08 - 39° (NE) 1,798 -0.8 -14.6°
